Date String (YYYY-MM-DD hh:mm:ss) UTC,Instrument flags,absolute air pressure of the measurement (hPa),sample flow rate (lpm),inlet stack bypass flow (lpm),air temperature of the measurement (°C),ambient temperature measured by the external sensor (°C),aerosol sample conditioner tube jacket temperature (°C),OPC LED temperature (°C),internal box temperature (°C),relative humidity of the measurement (%),span deviation,mass concentration of particles derived from Lorenz-Mie calculation of OPC scattering (μg/m³),mass concentration of particles derived from Lorenz-Mie calculation of OPC scattering (μg/m³),mass concentration of particles derived from Lorenz-Mie calculation of OPC scattering (μg/m³)
DateTimeUTC,F1_M11,P_M11,Q1_M11,Q2_M11,T1_M11,T2_M11,T3_M11,T4_M11,T5_M11,U1_M11,ZSPAN_M11,X0_M11,X2_M11,X1_M11
2023-07-28 17:00:00,SystemResetWarning,0834.5,5.00,000.00,029.0,026.9,000.0,037.4,030.5,32.1,0000.0,0009.69,0004.33,0003.52
2023-07-28 17:01:00,SystemResetWarning,0834.5,5.00,000.00,029.0,027.2,000.0,037.4,030.6,33.0,0000.0,0009.85,0004.33,0003.54
2023-07-28 17:02:00,SystemResetWarning,0834.5,5.00,000.00,029.0,027.5,000.0,037.4,030.7,33.4,0000.0,0009.88,0004.36,0003.56
2023-07-28 17:03:00,SystemResetWarning,0834.5,4.98,000.00,029.1,027.0,000.0,037.3,030.7,31.7,0000.0,0009.44,0004.42,0003.58
2023-07-28 17:04:00,SystemResetWarning,0834.6,5.00,000.00,029.0,025.6,000.0,037.2,030.4,31.8,0000.0,0009.91,0004.46,0003.61
2023-07-28 17:05:00,SystemResetWarning,0834.5,5.01,000.00,029.0,025.2,000.0,037.1,030.3,32.1,0000.0,0010.27,0004.47,0003.64
2023-07-28 17:06:00,SystemResetWarning,0834.5,5.01,000.00,028.9,025.5,000.0,037.2,030.2,32.8,0000.0,0010.54,0004.50,0003.65
2023-07-28 17:07:00,SystemResetWarning,0834.5,4.99,000.00,028.9,025.9,000.0,037.2,030.2,32.3,0000.0,0010.66,0004.49,0003.65
2023-07-28 17:08:00,SystemResetWarning,0834.5,4.99,000.00,028.9,026.3,000.0,037.2,030.3,32.8,0000.0,0010.76,0004.50,0003.66
2023-07-28 17:09:00,SystemResetWarning,0834.5,5.00,000.00,028.9,026.7,000.0,037.3,030.4,32.5,0000.0,0011.75,0004.54,0003.68
2023-07-28 17:10:00,SystemResetWarning,0834.6,5.01,000.00,028.9,027.0,000.0,037.3,030.5,32.3,0000.0,0011.89,0004.54,0003.68
2023-07-28 17:11:00,SystemResetWarning,0834.5,5.01,000.00,029.0,027.3,000.0,037.3,030.6,32.5,0000.0,0012.07,0004.54,0003.68
2023-07-28 17:12:00,SystemResetWarning,0834.5,4.98,000.00,029.0,027.0,000.0,037.3,030.6,32.4,0000.0,0011.86,0004.52,0003.67
2023-07-28 17:13:00,SystemResetWarning,0834.5,5.01,000.00,028.9,025.7,000.0,037.2,030.3,33.2,0000.0,0012.04,0004.51,0003.66
2023-07-28 17:14:00,SystemResetWarning,0834.5,5.00,000.00,028.9,025.2,000.0,037.1,030.3,34.5,0000.0,0012.25,0004.50,0003.65
2023-07-28 17:15:00,SystemResetWarning,0834.5,5.01,000.00,028.9,025.5,000.0,037.1,030.2,32.3,0000.0,0012.10,0004.42,0003.64
2023-07-28 17:16:00,SystemResetWarning,0834.5,4.99,000.00,028.9,025.8,000.0,037.1,030.2,32.0,0000.0,0012.02,0004.39,0003.63
2023-07-28 17:17:00,SystemResetWarning,0834.5,5.00,000.00,028.9,026.3,000.0,037.2,030.3,32.9,0000.0,0011.97,0004.40,0003.64
2023-07-28 17:18:00,SystemResetWarning,0834.5,5.01,000.00,028.9,026.7,000.0,037.2,030.4,31.5,0000.0,0012.04,0004.44,0003.65
2023-07-28 17:19:00,SystemResetWarning,0834.5,5.00,000.00,029.0,027.0,000.0,037.2,030.5,33.1,0000.0,0012.07,0004.48,0003.66
2023-07-28 17:20:00,SystemResetWarning,0834.5,4.99,000.00,029.0,027.4,000.0,037.3,030.6,33.4,0000.0,0011.17,0004.50,0003.65
2023-07-28 17:21:00,SystemResetWarning,0834.5,4.98,000.00,029.1,027.5,000.0,037.3,030.7,34.0,0000.0,0011.00,0004.54,0003.65
2023-07-28 17:22:00,SystemResetWarning,0834.5,5.04,000.00,029.1,026.6,000.0,037.2,030.5,34.1,0000.0,0010.97,0004.53,0003.67
2023-07-28 17:23:00,SystemResetWarning,0834.5,4.99,000.00,029.1,025.4,000.0,037.1,030.4,33.2,0000.0,0010.93,0004.54,0003.68
2023-07-28 17:24:00,SystemResetWarning,0834.5,4.99,000.00,029.1,025.3,000.0,037.1,030.3,32.2,0000.0,0010.63,0004.54,0003.70
2023-07-28 17:25:00,SystemResetWarning,0834.5,5.01,000.00,029.0,025.7,000.0,037.1,030.2,30.0,0000.0,0010.27,0004.51,0003.70
2023-07-28 17:26:00,SystemResetWarning,0834.5,5.01,000.00,029.0,026.1,000.0,037.2,030.3,31.8,0000.0,0009.73,0004.58,0003.71
2023-07-28 17:27:00,SystemResetWarning,0834.4,4.99,000.00,029.0,026.5,000.0,037.2,030.4,32.3,0000.0,0009.99,0004.61,0003.72
2023-07-28 17:28:00,SystemResetWarning,0834.4,4.99,000.00,029.1,026.9,000.0,037.3,030.5,33.2,0000.0,0011.32,0004.62,0003.73
2023-07-28 17:29:00,SystemResetWarning,0834.4,5.00,000.00,029.1,027.2,000.0,037.3,030.6,32.9,0000.0,0011.27,0004.60,0003.72
2023-07-28 17:30:00,SystemResetWarning,0834.4,5.00,000.00,029.1,027.5,000.0,037.3,030.7,31.9,0000.0,0011.22,0004.64,0003.74
2023-07-28 17:31:00,SystemResetWarning,0834.4,4.99,000.00,029.2,026.6,000.0,037.3,030.6,31.8,0000.0,0011.76,0004.66,0003.76
2023-07-28 17:32:00,SystemResetWarning,0834.4,5.00,000.00,029.1,025.3,000.0,037.2,030.4,32.3,0000.0,0012.07,0004.69,0003.76
2023-07-28 17:33:00,SystemResetWarning,0834.4,5.01,000.00,029.1,025.2,000.0,037.1,030.3,33.3,0000.0,0011.78,0004.67,0003.75
2023-07-28 17:34:00,SystemResetWarning,0834.4,5.01,000.00,029.0,025.5,000.0,037.1,030.2,34.1,0000.0,0012.19,0004.73,0003.76
2023-07-28 17:35:00,SystemResetWarning,0834.4,4.99,000.00,029.0,025.9,000.0,037.2,030.2,31.9,0000.0,0012.61,0004.77,0003.77
2023-07-28 17:36:00,SystemResetWarning,0834.4,5.00,000.00,029.0,026.4,000.0,037.2,030.3,33.3,0000.0,0012.85,0004.80,0003.77
2023-07-28 17:37:00,SystemResetWarning,0834.4,5.00,000.00,029.0,026.8,000.0,037.3,030.4,31.9,0000.0,0013.46,0004.80,0003.77
2023-07-28 17:38:00,SystemResetWarning,0834.4,5.00,000.00,029.1,027.1,000.0,037.3,030.5,32.1,0000.0,0012.96,0004.79,0003.77
2023-07-28 17:39:00,SystemResetWarning,0834.4,4.99,000.00,029.1,027.4,000.0,037.3,030.6,33.2,0000.0,0012.01,0004.83,0003.77
2023-07-28 17:40:00,SystemResetWarning,0834.4,4.98,000.00,029.1,026.6,000.0,037.3,030.5,31.9,0000.0,0012.46,0004.86,0003.77
2023-07-28 17:41:00,SystemResetWarning,0834.3,5.01,000.00,029.1,025.4,000.0,037.2,030.3,31.5,0000.0,0013.23,0004.85,0003.75
2023-07-28 17:42:00,SystemResetWarning,0834.4,5.00,000.00,029.0,025.2,000.0,037.1,030.2,32.7,0000.0,0012.62,0004.80,0003.73
2023-07-28 17:43:00,SystemResetWarning,0834.4,5.01,000.00,029.0,025.5,000.0,037.1,030.2,32.8,0000.0,0012.30,0004.73,0003.73
2023-07-28 17:44:00,SystemResetWarning,0834.4,4.99,000.00,028.9,025.9,000.0,037.2,030.2,32.8,0000.0,0012.10,0004.76,0003.75
2023-07-28 17:45:00,SystemResetWarning,0834.4,5.00,000.00,028.9,026.3,000.0,037.2,030.3,31.9,0000.0,0012.14,0004.76,0003.75
2023-07-28 17:46:00,SystemResetWarning,0834.4,5.00,000.00,029.0,026.7,000.0,037.3,030.4,30.9,0000.0,0012.27,0004.75,0003.76
2023-07-28 17:47:00,SystemResetWarning,0834.4,5.00,000.00,029.0,027.1,000.0,037.3,030.5,30.0,0000.0,0012.33,0004.75,0003.75
2023-07-28 17:48:00,SystemResetWarning,0834.4,5.01,000.00,029.0,027.4,000.0,037.3,030.6,30.1,0000.0,0011.99,0004.74,0003.74
2023-07-28 17:49:00,SystemResetWarning,0834.3,4.98,000.00,029.1,026.7,000.0,037.2,030.6,29.6,0000.0,0011.89,0004.73,0003.73
2023-07-28 17:50:00,SystemResetWarning,0834.3,4.99,000.00,029.0,025.4,000.0,037.1,030.4,30.1,0000.0,0011.64,0004.67,0003.72
2023-07-28 17:51:00,SystemResetWarning,0834.3,5.02,000.00,029.0,025.1,000.0,037.1,030.3,31.1,0000.0,0011.88,0004.66,0003.71
2023-07-28 17:52:00,SystemResetWarning,0834.3,4.99,000.00,028.9,025.4,000.0,037.1,030.1,30.8,0000.0,0011.37,0004.63,0003.71
2023-07-28 17:53:00,SystemResetWarning,0834.3,4.99,000.00,028.9,025.8,000.0,037.1,030.2,30.4,0000.0,0011.28,0004.62,0003.72
2023-07-28 17:54:00,SystemResetWarning,0834.3,5.01,000.00,028.9,026.2,000.0,037.2,030.2,30.8,0000.0,0011.27,0004.62,0003.73
2023-07-28 17:55:00,SystemResetWarning,0834.3,5.01,000.00,028.9,026.6,000.0,037.2,030.4,30.3,0000.0,0011.46,0004.63,0003.73
2023-07-28 17:56:00,SystemResetWarning,0834.3,5.00,000.00,028.9,027.0,000.0,037.2,030.4,29.6,0000.0,0011.56,0004.59,0003.72
2023-07-28 17:57:00,SystemResetWarning,0834.3,4.99,000.00,029.0,027.3,000.0,037.2,030.5,29.9,0000.0,0011.11,0004.54,0003.71
2023-07-28 17:58:00,SystemResetWarning,0834.4,4.98,000.00,029.0,026.8,000.0,037.2,030.5,29.8,0000.0,0010.95,0004.53,0003.70
2023-07-28 17:59:00,SystemResetWarning,0834.6,5.01,000.00,028.9,025.4,000.0,037.1,030.3,29.9,0000.0,0011.01,0004.56,0003.70
